AO-07 1 07530U 74089B 23047.92715883 -.00000018 00000-0 17825-3 0 9998 2 07530 101.9371 33.8406 0012000 294.5029 122.6579 12.53661285208109 UO-11 1 14781U 84021B 23047.68602735 .00004266 00000-0 51425-3 0 9997 2 14781 97.6443 29.4189 0006804 230.8726 129.1884 14.84317128 76268 AO-16 1 20439U 90005D 23047.94024715 .00000558 00000-0 22077-3 0 9999 2 20439 98.8741 35.1491 0010495 190.1511 224.4353 14.33016442727688 LO-19 1 20442U 90005G 23047.67465016 .00000598 00000-0 23435-3 0 9999 2 20442 98.8296 21.7133 0011904 166.9143 193.2351 14.33169438728089 HUBBLE 1 20580U 90037B 23047.54471270 .00008146 00000-0 45172-3 0 9991 2 20580 28.4714 350.0470 0002508 155.2338 9.2689 15.11994740603176 MET-2/21 1 22782U 93055A 23047.89825046 .00000064 00000-0 44347-4 0 9997 2 22782 82.5517 180.2298 0022625 24.6378 123.2252 13.83873596487816 AO-27 1 22825U 93061C 23047.88385914 .00000339 00000-0 14829-3 0 9992 2 22825 98.8594 88.7353 0009356 63.0313 297.1823 14.30247697533092 IO-26 1 22826U 93061D 23047.91735463 .00000378 00000-0 16239-3 0 9995 2 22826 98.8539 88.6360 0009730 50.0971 310.1065 14.30601733533360 FO-29 1 24278U 96046B 23047.96126712 .00000105 00000-0 14241-3 0 9999 2 24278 98.5187 42.9561 0350453 8.9877 351.7324 13.53133020308927 NOAA-15 1 25338U 98030A 23047.91676697 .00000454 00000-0 20728-3 0 9993 2 25338 98.6208 78.9501 0009463 308.1466 51.8860 14.26245869287862 GO-32 1 25397U 98043D 23047.63460869 .00000338 00000-0 16762-3 0 9997 2 25397 98.8527 4.1596 0002264 106.6175 253.5252 14.23822228278175 ISS 1 25544U 98067A 23047.82862581 .00023302 00000-0 41282-3 0 9996 2 25544 51.6397 204.6847 0009364 357.5003 161.4479 15.50115003383129 NO-44 1 26931U 01043C 23047.90666886 .00000600 00000-0 26021-3 0 9994 2 26931 67.0515 147.3792 0006143 283.1682 76.8733 14.30825943116375 SO-50 1 27607U 02058C 23047.92211242 .00002866 00000-0 40777-3 0 9996 2 27607 64.5548 273.5131 0078038 248.0635 111.2161 14.76760835 84464 CO-55 1 27844U 03031E 23047.77852713 .00000992 00000-0 46299-3 0 9991 2 27844 98.6805 56.7947 0010893 112.4049 247.8284 14.22633120 18618 CO-57 1 27848U 03031J 23047.74888696 .00000853 00000-0 40446-3 0 9995 2 27848 98.6844 57.2236 0010642 125.8467 234.3701 14.22164330 18387 RS-22 1 27939U 03042A 23047.82678104 .00003091 00000-0 54855-3 0 9994 2 27939 98.2201 194.0552 0013128 153.0484 207.1426 14.67899238 36884 NOAA-18 1 28654U 05018A 23047.89289148 .00000455 00000-0 26841-3 0 9992 2 28654 98.9218 122.8218 0014100 4.4993 355.6303 14.12864871914497 CO-58 1 28895U 05043F 23047.89562802 .00004198 00000-0 78981-3 0 9998 2 28895 98.1325 181.0639 0017327 91.7840 268.5348 14.65036257923198 CO-65 1 32785U 08021C 23047.85923958 .00009006 00000-0 91469-3 0 9998 2 32785 97.6908 16.6020 0013895 136.5870 223.6445 14.90977059802880 AAUSAT2 1 32788U 08021F 23047.47301352 .00020582 00000-0 16262-2 0 9996 2 32788 97.5546 29.9024 0009450 45.5551 314.6444 15.00660529804984 DO-64 1 32789U 08021G 23047.50458658 .00065223 00000-0 27305-2 0 9994 2 32789 97.3194 70.8980 0008528 173.6505 186.4842 15.23270106809036 CO-66 1 32791U 08021J 23047.46286064 .00013153 00000-0 12131-2 0 9998 2 32791 97.6419 21.4923 0014666 95.7387 264.5506 14.94701468803613 RS-30 1 32953U 08025A 23047.64271063 .00000024 00000-0 10000-3 0 9992 2 32953 82.5040 32.0617 0020653 87.1295 273.2150 12.43118847668672 PRISM 1 33493U 09002B 23047.98200695 .00018837 00000-0 13901-2 0 9991 2 33493 98.2490 54.3332 0019157 89.2537 271.0881 15.03177566765672 NOAA-19 1 33591U 09005A 23047.92245166 .00000400 00000-0 24036-3 0 9998 2 33591 99.1183 91.8335 0013373 218.1998 141.8227 14.12689683722967 SRMSAT 1 37841U 11058D 23047.55647785 .00000717 00000-0 24912-3 0 9997 2 37841 19.9706 219.3343 0011859 145.7887 244.7627 14.10834698585976 HRBE 1 37855U 11061F 23047.92274350 .00041370 00000-0 15353-2 0 9999 2 37855 101.7090 303.0425 0136294 46.8280 314.4235 15.19117663618252 RS-40 1 38735U 12041C 23047.86277034 .00000024 00000-0 10058-3 0 9990 2 38735 82.4767 113.1361 0017251 194.8499 165.2068 12.42591152478872 ZACUBE-1 1 39417U 13066B 23047.64093156 .00009891 00000-0 11693-2 0 9999 2 39417 97.6694 13.7402 0055011 325.4273 34.3369 14.83740557499310 Delfi-N3xt 1 39428U 13066N 23047.30577139 .00009426 00000-0 13982-2 0 9999 2 39428 97.8298 336.5949 0112480 216.7404 142.6057 14.71012830494357 GOMX-1 1 39430U 13066Q 23047.75992781 .00005890 00000-0 10360-2 0 9993 2 39430 97.7939 305.8776 0147350 354.7262 5.2396 14.61069602491958 LO-74 1 39440U 13066AA 23047.60336878 .00009068 00000-0 11929-2 0 9990 2 39440 97.7587 0.4832 0078720 59.9405 300.9584 14.78221118496337 AO-73 1 39444U 13066AE 23047.66346799 .00012092 00000-0 13820-2 0 9996 2 39444 97.6570 16.2253 0053015 311.6472 48.0209 14.85147567497749 SPROUT 1 39770U 14029E 23047.57548825 .00033515 00000-0 29711-2 0 9991 2 39770 97.9561 172.0258 0007589 352.1786 7.9264 14.96106013474083 DTUSAT-2 1 40030U 14033W 23047.79958884 .00009749 00000-0 97605-3 0 9991 2 40030 97.9576 347.0024 0010436 338.9643 21.1144 14.91572439470045 EO-80 1 40032U 14033Y 23047.77538678 .00011174 00000-0 11180-2 0 9994 2 40032 97.9577 346.9944 0010273 341.2396 18.8442 14.91562746470019 HODOYOSHI-1 1 40299U 14070B 23047.96321935 .00016756 00000-0 57042-3 0 9996 2 40299 97.2121 113.9136 0011222 355.1100 130.4818 15.30418664460402 FIREBIRD FU3 1 40377U 15003B 23047.31083426 .00099441 00000-0 19208-2 0 9992 2 40377 99.0777 333.4507 0069603 271.8075 87.5197 15.44772000445832 FIREBIRD FU4 1 40378U 15003C 23047.57872839 .00102117 00000-0 19611-2 0 9998 2 40378 99.0779 334.0684 0069379 270.2204 89.1089 15.44943532445877 GRIFEX 1 40379U 15003D 23047.67702341 .00054093 00000-0 15350-2 0 9995 2 40379 99.0826 316.4246 0097095 325.1350 34.3549 15.31368245444877 XW-2A 1 40903U 15049E 23047.68661200 .00139992 00000-0 94058-3 0 9992 2 40903 97.1395 113.5954 0005212 269.3978 190.0298 15.74767521417358 XW-2C 1 40906U 15049H 23047.68882810 .00018959 00000-0 81155-3 0 9990 2 40906 97.4976 54.7080 0011008 217.9485 252.4027 15.22794107410031 XW-2D 1 40907U 15049J 23047.70566696 .00022235 00000-0 91666-3 0 9995 2 40907 97.4960 54.9890 0010401 210.7750 269.3253 15.24039357410105 LILACSAT-2 1 40908U 15049K 23047.99773384 .00010135 00000-0 50268-3 0 9990 2 40908 97.5252 51.5468 0012515 245.5704 138.6597 15.17852234409553 XW-2E 1 40909U 15049L 23047.96322622 .00036938 00000-0 12495-2 0 9991 2 40909 97.4621 60.5621 0010079 177.4960 244.4528 15.30476135410700 XW-2F 1 40910U 15049M 23047.97717492 .00036622 00000-0 12606-2 0 9991 2 40910 97.4709 59.7792 0011035 179.4696 235.8005 15.29902054410468 XW-2B 1 40911U 15049N 23047.99751328 .00021898 00000-0 90695-3 0 9994 2 40911 97.4942 55.7861 0010331 210.3436 176.9188 15.23887041410038 DCBB 1 40912U 15049P 23048.00585186 .00043400 00000-0 13078-2 0 9997 2 40912 97.4284 64.2022 0011974 143.4078 246.4693 15.34125208411121 IO-86 1 40931U 15052B 23046.96350158 .00002003 00000-0 18800-3 0 9997 2 40931 5.9968 231.7873 0013588 15.4348 344.6292 14.77036803399401 ATHENOXAT-1 1 41168U 15077C 23047.41575606 .00083869 00000-0 24591-2 0 9997 2 41168 14.9937 70.5417 0005850 112.9519 284.3611 15.33350159397611 ChubuSat-2 1 41338U 16012B 23047.64168044 .00008529 00000-0 61579-3 0 9993 2 41338 31.0025 267.8431 0012728 55.5242 304.6595 15.02749111384228 ChubuSat-3 1 41339U 16012C 23047.76154675 .00007126 00000-0 51399-3 0 9993 2 41339 31.0119 264.0275 0012935 63.8278 296.3660 15.02716765384240 Horyu-4 1 41340U 16012D 23047.83621492 .00014971 00000-0 10027-2 0 9997 2 41340 31.0031 236.2631 0011969 113.3612 246.8285 15.05686556384555 e-st@r-II 1 41459U 16025D 23047.72002895 .00048441 00000-0 17056-2 0 9998 2 41459 98.1927 237.4685 0124003 156.3223 204.3799 15.22067953374523 AAUSAT4 1 41460U 16025E 23047.82157127 .00087201 00000-0 22217-2 0 9992 2 41460 98.1767 246.8176 0092133 121.2042 250.9254 15.34916737375186 LO-87 1 41557U 16033B 23047.94497618 .00057522 00000-0 12128-2 0 9996 2 41557 97.3847 152.4513 0009310 217.5122 254.0823 15.45000455374979 NuSat2 1 41558U 16033C 23047.94563714 .00062736 00000-0 12431-2 0 9998 2 41558 97.4112 159.6069 0008837 209.1270 289.3146 15.46801834375280 Lapan A3 1 41603U 16040E 23047.90476008 .00004616 00000-0 20696-3 0 9998 2 41603 97.1813 78.9962 0013680 27.6765 93.8992 15.21608558369196 Pratham 1 41783U 16059A 23047.85518061 .00001749 00000-0 34210-3 0 9998 2 41783 97.8851 84.2487 0034437 120.3716 240.0899 14.63672199341375 TY-1 1 41844U 16066D 23047.96334929 .00055867 00000-0 13772-2 0 9994 2 41844 97.3806 65.0308 0012944 125.5867 296.1360 15.40283986349090 CAS-2T 1 41847U 16066G 23047.71082528 .00003998 00000-0 60435-3 0 9992 2 41847 98.5198 116.8021 0361423 198.5858 160.1842 14.39185117329475 EO-88 1 42017U 17008BX 23047.92581788 .00092995 00000-0 17014-2 0 9993 2 42017 97.2353 116.8305 0003281 88.3471 271.8157 15.49017028334697 CAS-4B 1 42759U 17034B 23047.91009888 .00014698 00000-0 78970-3 0 9993 2 42759 43.0166 63.0646 0009926 34.1179 35.6971 15.14693623313384 CAS-4A 1 42761U 17034D 23047.93150684 .00013994 00000-0 75000-3 0 9998 2 42761 43.0170 61.5381 0010503 37.1642 37.6712 15.14807520313391 NIUSat 1 42766U 17036B 23047.87630309 .00033613 00000-0 10676-2 0 9992 2 42766 97.1754 82.3656 0012263 166.9283 193.2280 15.32500793314142 Aalto 1 1 42775U 17036L 23047.32541505 .00028268 00000-0 95863-3 0 9993 2 42775 97.1704 81.1646 0011542 169.9747 190.1727 15.30433271314001 URSA MAIOR 1 42776U 17036M 23047.90140389 .00031551 00000-0 10304-2 0 9998 2 42776 97.1714 82.7699 0011208 165.6769 194.4793 15.31632953314148 Max Valier Sat 1 42778U 17036P 23047.90388202 .00028546 00000-0 89492-3 0 9993 2 42778 97.1761 85.9558 0009958 165.0295 195.1244 15.32976659314265 Pegasus 1 42784U 17036V 23047.86256623 .00050348 00000-0 13786-2 0 9993 2 42784 97.1686 87.4893 0009057 160.5373 199.6220 15.37124453314438 NUDATSat 1 42787U 17036Y 23047.92341747 .00115381 00000-0 19507-2 0 9991 2 42787 97.1677 94.4834 0006946 142.8736 217.3926 15.51158642314719 SUCHAI 1 1 42788U 17036Z 23047.83205667 .00069886 00000-0 16598-2 0 9997 2 42788 97.1676 90.0392 0008208 153.9201 206.2461 15.41402764314664 SKCUBE 1 42789U 17036AA 23047.88860238 .00057614 00000-0 14679-2 0 9998 2 42789 97.1680 89.1289 0008503 155.5161 204.6490 15.39318399314532 VZLUSAT 1 1 42790U 17036AB 23047.39679094 .00124820 00000-0 21619-2 0 9990 2 42790 97.1668 93.8254 0006534 143.7180 216.4516 15.50442652314775 VENTA 1 1 42791U 17036AC 23047.89597766 .00049286 00000-0 13428-2 0 9992 2 42791 97.1691 88.6580 0008457 157.0184 203.1441 15.37290180314495 Robusta 1B 1 42792U 17036AD 23047.90870795 .00064358 00000-0 15615-2 0 9998 2 42792 97.1671 89.9990 0007911 154.0578 206.1067 15.40782954314600 D-SAT 1 42794U 17036AF 23047.93165047 .00011286 00000-0 91822-3 0 9997 2 42794 97.4603 45.7344 0118939 346.8999 12.9139 14.94256251307962 TechnoSat 1 42829U 17042E 23047.84053029 .00006407 00000-0 62380-3 0 9995 2 42829 97.3970 252.4672 0012190 269.8834 90.0989 14.92781414304534 AO-91 1 43017U 17073E 23047.92234319 .00012225 00000-0 87420-3 0 9998 2 43017 97.6492 297.0549 0241923 105.6418 257.1633 14.83921224283338 PICSAT 1 43132U 18004X 23047.18320703 .00067103 00000-0 15626-2 0 9995 2 43132 97.3467 128.2918 0006494 202.0795 158.0174 15.42022092283804 AO-92 1 43137U 18004AC 23047.14883644 .00048610 00000-0 13392-2 0 9994 2 43137 97.3424 125.7644 0006409 210.8958 149.1910 15.36963262283663 TianYi 2 1 43155U 18008A 23047.98530156 .00026383 00000-0 12087-2 0 9990 2 43155 97.3188 103.6985 0014676 16.7087 102.8506 15.20356367280359 Zhou Enlai 1 43156U 18008B 23047.95489762 .00028677 00000-0 13126-2 0 9997 2 43156 97.3236 103.6524 0012303 19.0278 100.1896 15.20399663280276 TianYi 6 1 43158U 18008D 23047.89898429 .00023253 00000-0 11249-2 0 9995 2 43158 97.3213 100.9935 0011839 21.0302 152.1567 15.18531773280137 S-Net D 1 43186U 18014G 23047.90460931 .00007618 00000-0 62805-3 0 9990 2 43186 97.6476 313.9152 0009006 186.5497 173.5610 14.99284558275521 S-Net B 1 43187U 18014H 23047.50472128 .00007612 00000-0 62774-3 0 9997 2 43187 97.6468 313.4614 0008924 187.7755 172.3331 14.99272924275463 S-Net A 1 43188U 18014J 23047.90544246 .00007320 00000-0 60383-3 0 9993 2 43188 97.6476 313.9335 0009023 187.3328 172.7765 14.99279421275522 S-Net C 1 43189U 18014K 23047.50633601 .00007510 00000-0 61956-3 0 9992 2 43189 97.6459 313.4485 0009033 189.2277 170.8782 14.99264936274016 FMN 1 1 43192U 18015A 23048.01193756 .00363985 00000-0 25022-2 0 9990 2 43192 97.5503 209.0471 0011750 245.4006 240.1672 15.73539096281290 Shaonian Xing 1 43199U 18015H 23047.99774734 .00086135 00000-0 15986-2 0 9991 2 43199 97.5370 200.0450 0011561 248.7729 259.5046 15.48566858281067 CubeBel-1 1 43666U 18083E 23047.89175148 .00036189 00000-0 12365-2 0 9990 2 43666 97.3981 79.3810 0011190 180.8588 302.2078 15.30144105238753 Changshagaoxin 1 43669U 18083H 23047.94839123 .00032249 00000-0 11864-2 0 9995 2 43669 97.3954 74.6150 0008521 176.4172 228.4266 15.27774548238546 Ten-Koh 1 43677U 18084G 23047.61620012 .00005841 00000-0 57906-3 0 9990 2 43677 97.9915 185.5170 0015261 182.9381 177.1750 14.92105223234076 PO-101 1 43678U 18084H 23047.76699529 .00004103 00000-0 40175-3 0 9996 2 43678 98.0004 189.5030 0009251 192.7439 167.3507 14.92833365234292 QO-100 1 43700U 18090A 23047.84985111 .00000142 00000-0 00000-0 0 9992 2 43700 0.0135 111.1817 0002460 257.4897 109.6012 1.00271297 15485 Reaktor Hello World 1 43743U 18096AA 23047.49762612 .00061480 00000-0 13349-2 0 9999 2 43743 97.3299 132.3823 0011814 259.4548 100.5369 15.44087143235467 MinXSS-2 1 43758U 18099A 23047.43321322 .00013210 00000-0 10784-2 0 9999 2 43758 97.5934 114.3388 0014385 166.7115 193.4490 14.99460803229638 AO-95 1 43770U 18099N 23047.14525767 .00010735 00000-0 90688-3 0 9991 2 43770 97.5917 111.9756 0013465 171.7130 188.4317 14.98198936229474 RANGE-B 1 43772U 18099Q 23047.13760929 .00015947 00000-0 13022-2 0 9999 2 43772 97.6052 114.3168 0013604 153.5336 206.6585 14.99413043229517 RANGE-A 1 43773U 18099R 23047.76424778 .00008217 00000-0 71158-3 0 9995 2 43773 97.5815 110.9972 0013354 159.8745 200.3006 14.97313844229531 MOVE-II 1 43780U 18099Y 23047.15370081 .00018144 00000-0 14311-2 0 9990 2 43780 97.5947 113.9022 0012414 184.9483 175.1620 15.00728993229562 SNUSat 2 1 43782U 18099AA 23047.64071527 .00010481 00000-0 88505-3 0 9992 2 43782 97.5897 112.9721 0012563 158.3109 201.8648 14.98229634229570 SnugLite 1 43784U 18099AC 23047.63240879 .00011751 00000-0 98081-3 0 9992 2 43784 97.5858 112.5904 0014351 167.2171 192.9419 14.98632975229609 ITASat 1 1 43786U 18099AE 23047.12950892 .00010602 00000-0 89757-3 0 9995 2 43786 97.5939 112.9846 0014937 163.6414 196.5293 14.98102056229512 EAGLET 1 1 43790U 18099AJ 23047.41482475 .00006928 00000-0 59050-3 0 9998 2 43790 97.5940 113.7960 0012835 165.8931 194.2652 14.97994776229294 ESEO 1 43792U 18099AL 23047.60500291 .00004818 00000-0 42325-3 0 9991 2 43792 97.5883 112.7690 0013292 162.9234 197.2438 14.96959743229348 CSIM 1 43793U 18099AM 23047.42131283 .00017821 00000-0 13830-2 0 9999 2 43793 97.5918 115.3321 0018279 167.6078 192.5599 15.01281443229445 Astrocast 0.1 1 43798U 18099AS 23047.45372001 .00016636 00000-0 13338-2 0 9998 2 43798 97.5923 114.8270 0013986 142.9647 217.2545 15.00104704229653 JO-97 1 43803U 18099AX 23047.64251715 .00012543 00000-0 10360-2 0 9999 2 43803 97.5878 113.3607 0014886 165.0216 195.1451 14.99014220229622 Suomi 100 1 43804U 18099AY 23047.34926693 .00011163 00000-0 92790-3 0 9996 2 43804 97.5902 112.9348 0014029 162.8642 197.3058 14.98807044229580 Al Farabi 2 1 43805U 18099AZ 23047.14239994 .00014021 00000-0 11294-2 0 9991 2 43805 97.5985 113.5824 0012809 154.6030 205.5831 14.99975697229595 CHOMPTT 1 43855U 18104G 23047.54844418 .00032782 00000-0 10030-2 0 9991 2 43855 85.0295 247.8018 0015360 53.8561 306.4106 15.33574132232044 ISAT 1 43879U 18111D 23047.53791586 .00014245 00000-0 11397-2 0 9992 2 43879 97.6492 313.7883 0011520 197.4648 162.6181 15.00248411224213 UWE-4 1 43880U 18111E 23047.25648478 .00012801 00000-0 10241-2 0 9997 2 43880 97.6521 314.3704 0013326 218.2941 141.7338 15.00259552226224 Sparrow 1 43881U 18111F 23047.50606893 .00013887 00000-0 11003-2 0 9993 2 43881 97.6621 314.9817 0011276 229.2366 130.7880 15.00628359226272 Lume 1 1 43908U 18111AJ 23047.40849897 .00045350 00000-0 12103-2 0 9997 2 43908 97.1606 293.0180 0012961 281.8914 78.0877 15.37901346230775 FO-99 1 43937U 19003F 23047.81624261 .00058653 00000-0 14473-2 0 9993 2 43937 97.1057 77.5005 0016043 3.1730 356.9615 15.40194627227442 AstroCast 0.2 1 44083U 19018F 23047.61918941 .00065498 00000-0 18666-2 0 9994 2 44083 97.2887 107.5130 0006634 334.9064 25.1857 15.35822690215824 AISTechSat 3 1 44103U 19018AB 23047.43937329 .00039019 00000-0 11831-2 0 9995 2 44103 97.2745 107.2192 0009964 354.2316 5.8810 15.33974201215951 AISat 1 1 44104U 19018AC 23047.86299444 .00028100 00000-0 65568-3 0 9998 2 44104 97.3789 137.5071 0045368 336.0835 23.8303 15.41082475217158 Prox-1 1 44339U 19036A 23047.81705015 .00014131 00000-0 30065-2 0 9991 2 44339 24.0017 88.6941 0009920 25.0827 335.0146 14.57377325194009 Oculus-ASR 1 44348U 19036K 23047.72618999 .01497343 -73579-5 11812-2 0 9992 2 44348 28.4817 255.1228 0051890 264.3769 95.0929 16.10213108202641 Move-IIb 1 44398U 19038N 23047.91505449 .00055280 00000-0 19982-2 0 9993 2 44398 97.6551 26.1867 0017466 11.0865 349.0755 15.28112739200226 SONATE 1 44400U 19038Q 23047.48490995 .00020106 00000-0 98231-3 0 9992 2 44400 97.6716 23.0088 0022526 17.4396 342.7606 15.18059897199907 BeeSat 9 1 44412U 19038AC 23047.48884548 .00038912 00000-0 16392-2 0 9997 2 44412 97.6641 24.8325 0018274 19.1483 341.0436 15.23083789199749 JAISAT-1 1 44419U 19038F 23047.92656448 .00037965 00000-0 15793-2 0 9990 2 44419 97.6644 26.2968 0017080 15.6066 344.5693 15.23534941200185 Taurus 1 1 44530U 19059C 23047.82268081 .00009548 00000-0 25433-2 0 9996 2 44530 98.5482 153.9577 0013847 102.4476 257.8302 14.48632308181206 Duchifat 3 1 44854U 19089C 23047.83253372 .00014175 00000-0 10166-2 0 9995 2 44854 36.9628 89.3282 0006997 49.2101 118.4455 15.03736545174695 OPS-SAT 1 44878U 19092F 23047.48015702 .00046252 00000-0 17454-2 0 9997 2 44878 97.4772 235.2734 0010105 208.1994 151.8699 15.26836028175323 TO-108 1 44881U 19093C 23047.80787224 .00002340 00000-0 29976-3 0 9996 2 44881 97.8714 128.2941 0016024 108.4715 251.8233 14.82155508170965 FloripaSat 1 1 44885U 19093G 23047.82313841 .00008020 00000-0 95487-3 0 9993 2 44885 97.8769 130.3937 0014962 113.3421 246.9366 14.84529407171087 RS-44 1 44909U 19096E 23047.74502040 .00000045 00000-0 12886-3 0 9996 2 44909 82.5173 67.9741 0218553 108.4870 254.0118 12.79718376146755 BY70-2 1 45857U 20042B 23047.83248805 .00030397 00000-0 35662-2 0 9997 2 45857 97.9346 127.7654 0008758 46.3911 313.7955 14.84855374141641 UPMSat 2 1 46276U 20061E 23047.46749315 .00016323 00000-0 74019-3 0 9998 2 46276 97.3630 117.6849 0002347 64.7525 295.3954 15.20903724135926 AmicalSat 1 46287U 20061R 23048.00556559 .00023112 00000-0 11900-2 0 9990 2 46287 97.4174 116.9869 0002926 134.9548 225.1923 15.16407628135478 SALSAT 1 46495U 20068K 23047.34622723 .00009358 00000-0 64117-3 0 9996 2 46495 97.7557 354.3023 0016391 164.3279 195.8458 15.06170885130872 BY70-3 1 46839U 20079N 23048.04302177 .00196852 00000-0 18721-2 0 9991 2 46839 97.1643 124.2619 0004661 187.3760 294.2443 15.66213331128129 CAPE 3 1 47309U 21002A 23047.89364555 .00051281 00000-0 15899-2 0 9990 2 47309 60.6800 161.1058 0036634 115.4553 245.0337 15.32414024115796 AO-109 1 47311U 21002C 23047.72320766 .00042168 00000-0 13374-2 0 9991 2 47311 60.6825 159.2784 0034535 112.3721 248.1035 15.31845316115780 MiTEE 1 1 47314U 21002F 23047.65864615 .00125651 00000-0 23945-2 0 9996 2 47314 60.6762 141.3898 0028998 99.0819 261.3562 15.46991731116104 ExoCube 2 1 47319U 21002L 23047.86542974 .00040906 00000-0 13208-2 0 9995 2 47319 60.6807 160.4437 0035043 114.4073 246.0681 15.31268845115741 UVSQ-SAT 1 47438U 21006AB 23047.61516318 .00025728 00000-0 11922-2 0 9993 2 47438 97.4046 106.7072 0011677 141.0792 219.1286 15.20005621114307 YUSAT 1 1 47439U 21006AC 23047.39874339 .00031456 00000-0 14017-2 0 9992 2 47439 97.4045 106.8899 0011124 141.4601 218.7431 15.21313880114290 SOMP 2b 1 47445U 21006AJ 23047.41964554 .00025039 00000-0 11803-2 0 9991 2 47445 97.4022 105.9360 0011380 145.7766 214.4204 15.19421810114255 IDEASSat 1 47458U 21006AX 23047.62826713 .00023653 00000-0 11247-2 0 9994 2 47458 97.4111 106.8548 0010614 143.7327 216.4629 15.19141134114279 CubeSX-Sirius-HSE 1 47951U 21022V 23047.99273654 .00016998 00000-0 10286-2 0 9996 2 47951 97.5107 307.4513 0021116 33.9529 91.6405 15.10506169104860 CubeSX-HSE 1 47952U 21022W 23048.03679399 .00016276 00000-0 98363-3 0 9991 2 47952 97.5104 307.5291 0021365 32.6912 90.8432 15.10557611104870 KSU-Cubesat 1 47954U 21022Y 23047.65865589 .00021670 00000-0 12891-2 0 9993 2 47954 97.5120 307.3983 0020653 33.6458 326.6078 15.11082504104557 GRBAlpha 1 47959U 21022AD 23047.75750212 .00016333 00000-0 98591-3 0 9997 2 47959 97.5104 307.3198 0021251 34.0995 53.9724 15.10603234103654 Orbicraft-Zorkiy 1 47960U 21022AE 23047.96593830 .00017779 00000-0 10604-2 0 9996 2 47960 97.5130 307.8099 0020861 32.3873 97.3217 15.11025547104388 STECCO 1 47962U 21022AG 23047.94831426 .00028548 00000-0 15339-2 0 9998 2 47962 97.5102 309.3234 0015767 26.3149 29.9440 15.14751490103806 DO-111 1 47963U 21022AH 23046.25001587 .00098513 00000-0 35600-2 0 9991 2 47963 97.5131 311.2851 0014226 29.2993 330.9041 15.27963909103798 MO-110 1 47964U 21022AJ 23047.44856822 .00033452 00000-0 17665-2 0 9996 2 47964 97.5120 309.2810 0017879 24.8725 335.3365 15.15299134103753 FEES 1 48082U 21022AL 23047.23901868 .00051885 00000-0 25279-2 0 9996 2 48082 97.5124 309.4834 0013971 24.8511 335.3393 15.18072209103452 CSS 1 48274U 21035A 23047.81501973 .00022184 00000-0 25859-3 0 9995 2 48274 41.4737 169.9564 0004708 270.2760 224.3899 15.61119508103004 TUBIN 1 48900U 21059X 23047.69543528 .00014815 00000-0 75749-3 0 9990 2 48900 97.5790 180.8984 0009402 344.5600 128.9681 15.16720684 90896 IT-SPINS 1 49017U 21013G 23047.91281308 .00043879 00000-0 13191-2 0 9994 2 49017 51.5966 304.8305 0007662 226.2801 133.7547 15.33933135 91196 LEDSAT 1 49069U 21073D 23048.01522928 .00017801 00000-0 10452-2 0 9998 2 49069 97.4975 121.0674 0025626 173.1681 186.9904 15.11497035 82733 CUTE 1 49263U 21088D 23047.47054598 .00017302 00000-0 11903-2 0 9990 2 49263 97.5599 115.5007 0018160 316.6371 43.3426 15.05832776 76102 TeikyoSat 4 1 49396U 21102B 23047.94526723 .00004313 00000-0 33625-3 0 9994 2 49396 97.5379 103.5853 0015594 140.9177 219.3177 15.01598623 69725 Z-Sat 1 49399U 21102E 23047.95863899 .00007573 00000-0 55218-3 0 9999 2 49399 97.5053 104.7167 0023781 117.8275 242.5365 15.03771007 69815 KOSEN 1 1 49402U 21102H 23047.62886964 .00010109 00000-0 70865-3 0 9990 2 49402 97.4977 104.7284 0022721 109.0531 251.3159 15.05179327 69813 HO-113 1 50466U 21131B 23048.00204082 .00001262 00000-0 42589-3 0 9994 2 50466 98.5599 129.9136 0005517 134.8074 225.3562 14.38686064 60078 Tevel-3 1 50988U 22002E 23047.99696938 .00027719 00000-0 13013-2 0 9997 2 50988 97.4508 116.1537 0007649 295.9217 187.2489 15.19576548 60477 Tevel-8 1 50989U 22002F 23047.74235597 .00027669 00000-0 13016-2 0 9998 2 50989 97.4526 115.9464 0007789 295.9381 159.3915 15.19503353 60435 Tevel-5 1 50998U 22002Q 23047.73058002 .00028475 00000-0 13129-2 0 9992 2 50998 97.4504 116.1503 0009058 291.0033 165.2557 15.20182373 60457 Tevel-6 1 50999U 22002R 23047.99788286 .00028511 00000-0 13137-2 0 9995 2 50999 97.4499 116.4119 0009025 289.2447 195.6807 15.20203937 60498 Tevel-1 1 51013U 22002AF 23047.73524774 .00027513 00000-0 12934-2 0 9990 2 51013 97.4500 115.8527 0007840 297.1273 158.6167 15.19528840 60436 Grizu-263a 1 51025U 22002AT 23047.14044507 .00076871 00000-0 28131-2 0 9996 2 51025 97.4674 118.1023 0010067 291.0503 68.9659 15.27696934 60474 NO-116 1 51031U 22002AZ 23047.96424582 .00047108 00000-0 19681-2 0 9999 2 51031 97.4629 117.8395 0010637 292.3397 67.6712 15.23417354 60544 IRIS-A 1 51044U 22002BN 23047.44904948 .00018735 00000-0 96335-3 0 9991 2 51044 97.4520 114.8979 0007604 304.4814 55.5700 15.16479249 60346 Tevel-7 1 51062U 22002CG 23047.75403699 .00027627 00000-0 12995-2 0 9991 2 51062 97.4522 115.9357 0007513 293.3304 215.2286 15.19509653 60439 Tevel-4 1 51063U 22002CH 23047.75649096 .00027616 00000-0 13000-2 0 9991 2 51063 97.4514 115.9286 0007810 294.9258 211.6194 15.19481232 60437 Tevel-2 1 51069U 22002CP 23047.73073234 .00027650 00000-0 12986-2 0 9990 2 51069 97.4505 115.8671 0007775 297.6104 159.7521 15.19560361 60437 DELFI-PQ 1 51074U 22002CU 23047.47527858 .00052733 00000-0 20636-2 0 9994 2 51074 97.4762 119.0104 0011081 323.1846 36.8630 15.25582186 60531 SO-115 1 51080U 22002DA 23047.44818622 .00035632 00000-0 15393-2 0 9993 2 51080 97.4779 118.3519 0011383 327.4155 32.6377 15.22342688 60487 SO-114 1 51081U 22002DB 23047.44589527 .00036037 00000-0 15532-2 0 9998 2 51081 97.4769 118.3122 0011585 327.4592 32.5929 15.22416980 60485 OreSat0 1 52017U 22026K 23047.97117283 .00026551 00000-0 12275-2 0 9999 2 52017 97.5103 50.4196 0026489 140.6448 219.6719 15.19821835 51254 Planetum 1 1 52738U 22057G 23047.74750831 .00024569 00000-0 12757-2 0 9992 2 52738 97.5252 164.2143 0007844 49.6250 310.5666 15.16076623 40386 Foresail-1 1 52766U 22057AL 23047.92486119 .00016383 00000-0 84346-3 0 9997 2 52766 97.5357 165.1583 0013235 31.6019 108.4156 15.16414032 40430 SNUGLITE 2 1 52899U 22065F 23047.86840071 .00003157 00000-0 68417-3 0 9993 2 52899 98.0473 196.2241 0007320 227.5976 132.4605 14.58829278 33316 CTIM 1 52950U 22074G 23047.42118039 .00052056 00000-0 16505-2 0 9997 2 52950 45.0109 308.7638 0007880 179.2029 180.8920 15.31976083 35010 IO-117 1 53106U 22080B 23034.19933790 -.00000003 00000-0 00000-0 0 9994 2 53106 70.1777 6.2677 0008922 216.5435 143.4616 6.42557193 13147 SelfieSat 1 53951U 22057BA 23047.74063156 .00028292 00000-0 14412-2 0 9994 2 53951 97.5304 164.5506 0009903 41.2668 318.9311 15.16704231 40390 FO-118 1 54684U 22167C 23047.74781343 .00019155 00000-0 11661-2 0 9996 2 54684 97.5418 186.5933 0014902 30.6923 86.9239 15.10357794 10478 HO-119 1 54816U 21035C 23047.73462502 .00427920 00000-0 20543-2 0 9990 2 54816 41.4776 166.0139 0015898 356.8290 3.2465 15.80545109 9406 /EX
